[[{"header":{"parameterUnit":"m.s-1","parameterCategory":1,"la1":30.2992,"la2":30.254,"lo1":-89.0895,"lo2":-89.0443,"dy":0.0025,"dx":0.0025,"nx":19,"ny":19,"refTime":"2026-05-07T09:00:00:Z","depth":0,"parameterNumber":2,"parameterNumberName":"U-component_of_WINDS"},"data":[0,0,0,-3.9932,-3.9934,-4.0024,-4.0024,-4.017,-4.0172,0,0,0,0,0,0,0,0,0,0,0,-3.9923,-3.9924,-3.9932,-3.9935,-4.0024,-4.0024,-4.017,-4.0172,0,0,0,0,0,0,0,0,0,0,0,-3.9922,-3.9924,-3.9926,-3.9935,-4.0024,-4.0024,-4.0169,-4.0091,0,0,0,0,0,0,0,0,0,0,-3.9999,-4.0007,-3.9924,-3.9926,-3.9936,-4.0024,-4.0024,-4.0087,-4.0096,-4.0142,0,-4.0187,0,-4.0182,-4.0183,-4.0184,0,0,0,-3.9922,-3.9999,-4.0008,-3.9926,-3.9937,-4.0024,-3.998,-4.0092,-4.0102,-4.0155,-4.0189,-4.0193,-4.0184,-4.0184,-4.0185,-4.0492,-4.0494,0,0,-3.9917,-3.9949,-4.0001,-4.0015,-4.0002,-3.9977,-3.9983,-4.0097,-4.0137,-4.0189,-4.0196,-4.0187,-4.0186,-4.0187,-4.0491,-4.0493,0,0,0,-3.9911,-3.9946,-3.9951,-4.001,-4.0024,-3.998,-3.9987,-4.0132,-4.0131,-4.0197,-4.0188,-4.0187,-4.0189,-4.0488,-4.0491,-4.0623,0,0,0,-3.9908,-3.9942,-3.9949,-3.9969,-4.0022,-4.0079,-4.0019,-4.0123,-4.0135,-4.0188,-4.0187,-4.019,-4.0486,-4.049,-4.0615,-4.0681,0,0,0,-3.9911,-3.9942,-3.9961,-3.9971,-4.001,-4.0076,-4.0081,-4.0125,-4.013,-4.0184,-4.0191,-4.0484,-4.0489,-4.0607,-4.0669,-4.0773,0,0,0,-3.9924,-4.0077,-3.9964,-4.013,-4.001,-4.0156,-4.008,-4.0187,-4.0249,-4.0187,-4.0486,-4.0491,-4.0605,-4.0661,-4.0765,-4.0869,-4.0914,0,0,-4.0134,-4.0103,-4.0198,-4.01,-4.0275,-4.014,-4.0334,-4.0361,-4.0337,-4.0443,-4.045,-4.0618,-4.0668,-4.0772,-4.1152,-4.1188,0,0,0,-4.0276,-4.0346,-4.0385,-4.0445,-4.0468,-4.0495,-4.0489,-4.0499,-4.0587,-4.0397,-4.0681,-4.071,-4.077,-4.0818,-4.0849,-4.0899,-4.0514,-4.0513,-4.0513,-4.062,-4.0581,-4.0738,-4.0711,-4.077,-4.0762,-4.0808,-4.0821,-4.0764,-4.0832,-4.0864,-4.1099,-4.1156,-4.1179,-4.1232,-4.0913,-4.0913,-4.0914,-4.0914,-4.0926,-4.102,-4.0941,-4.1065,-4.1024,-4.1128,-4.1127,-4.1084,-4.1176,-4.1071,-4.1122,-4.1014,-4.122,-4.1265,-4.0924,-4.0922,-4.0921,-4.092,-4.0919,-4.115,-4.1188,-4.1197,-4.1281,-4.135,-4.1317,-4.141,-4.1368,-4.133,-4.138,-4.1411,-4.1409,-4.1404,-4.1397,-4.1398,-4.1399,-4.1399,-4.14,-4.14,-4.1379,-4.1385,-4.1467,-4.1506,-4.154,-4.158,-4.1574,-4.1607,-4.1633,-4.1596,-4.1596,-4.1536,-4.1246,-4.1176,-4.1413,-4.1411,-4.1409,-4.1408,-4.1407,-4.1709,-4.1627,-4.1755,-4.179,-4.1832,-4.1906,-4.1851,-4.1922,-4.1943,-4.1991,-4.1918,-4.171,-4.1676,-4.1652,-4.1594,-4.1924,-4.1924,-4.1924,-4.1924,-4.1899,-4.1877,-4.1999,-4.2057,-4.2109,-4.2073,-4.2221,-4.2219,-4.2204,-4.2216,-4.2161,-4.2079,-4.2056,-4.2036,-4.2003,-4.1948,-4.2362,-4.2362,-4.2362,-4.2101,-4.2082,-4.2216,-4.2199,-4.223,-4.2258,-4.2397,-4.2469,-4.2434,-4.2379,-4.2224,-4.2206,-4.2074,-4.2032,-4.1976,-4.1925,-4.1824,0,0]},{"header":{"parameterUnit":"m.s-1","parameterCategory":1,"la1":30.2992,"la2":30.254,"lo1":-89.0895,"lo2":-89.0443,"dy":0.0025,"dx":0.0025,"nx":19,"ny":19,"refTime":"2026-05-07T09:00:00:Z","depth":0,"parameterNumber":3,"parameterNumberName":"V-component_of_WINDS"},"data":[0,0,0,-1.7602,-1.7602,-1.7603,-1.7603,-1.7608,-1.7608,0,0,0,0,0,0,0,0,0,0,0,-1.7604,-1.7604,-1.7602,-1.7602,-1.7603,-1.7603,-1.7608,-1.7608,0,0,0,0,0,0,0,0,0,0,0,-1.7604,-1.7604,-1.7604,-1.7602,-1.7603,-1.7603,-1.7608,-1.7606,0,0,0,0,0,0,0,0,0,0,-1.7604,-1.7608,-1.7604,-1.7604,-1.7602,-1.7603,-1.7603,-1.7606,-1.7606,-1.7609,0,-1.7613,0,-1.7611,-1.7609,-1.7609,0,0,0,-1.76,-1.7608,-1.7606,-1.7604,-1.7602,-1.7603,-1.7602,-1.7606,-1.7606,-1.761,-1.7613,-1.7613,-1.7611,-1.7609,-1.7609,-1.7634,-1.7634,0,0,-1.76,-1.7605,-1.7606,-1.7607,-1.7607,-1.7602,-1.7602,-1.7606,-1.761,-1.7613,-1.7613,-1.7611,-1.7609,-1.7609,-1.7634,-1.7634,0,0,0,-1.7601,-1.7605,-1.7603,-1.7607,-1.7607,-1.7602,-1.7602,-1.761,-1.7609,-1.7613,-1.7611,-1.7609,-1.7609,-1.7633,-1.7634,-1.7649,0,0,0,-1.7601,-1.7606,-1.7603,-1.7607,-1.7607,-1.7608,-1.7606,-1.7609,-1.7609,-1.7611,-1.7609,-1.7609,-1.7633,-1.7634,-1.7648,-1.7655,0,0,0,-1.7603,-1.7606,-1.7607,-1.7607,-1.7608,-1.7608,-1.7607,-1.7608,-1.7608,-1.7609,-1.7609,-1.7633,-1.7633,-1.7647,-1.7653,-1.7662,0,0,0,-1.7607,-1.7621,-1.7608,-1.7623,-1.7608,-1.7618,-1.7607,-1.7614,-1.7617,-1.7609,-1.7633,-1.7634,-1.7647,-1.7652,-1.7661,-1.767,-1.7674,0,0,-1.7628,-1.7624,-1.7632,-1.762,-1.7634,-1.7617,-1.7633,-1.763,-1.7626,-1.7631,-1.7632,-1.7648,-1.7653,-1.7662,-1.7698,-1.7701,0,0,0,-1.7641,-1.7647,-1.7649,-1.7652,-1.7651,-1.765,-1.7645,-1.7644,-1.7648,-1.763,-1.7654,-1.7657,-1.7661,-1.7665,-1.7668,-1.7671,-1.7636,-1.7636,-1.7636,-1.7678,-1.7671,-1.7684,-1.7677,-1.768,-1.7675,-1.7676,-1.7674,-1.7666,-1.7672,-1.7673,-1.7696,-1.7701,-1.7703,-1.7706,-1.7678,-1.7678,-1.7678,-1.7678,-1.7708,-1.7715,-1.7704,-1.7712,-1.7704,-1.7712,-1.7706,-1.77,-1.7705,-1.7694,-1.7698,-1.7686,-1.7707,-1.7709,-1.7679,-1.7679,-1.7679,-1.7679,-1.7679,-1.7731,-1.7733,-1.7731,-1.7735,-1.7738,-1.773,-1.7735,-1.7728,-1.7722,-1.7726,-1.7726,-1.7725,-1.7723,-1.7726,-1.7726,-1.7726,-1.7727,-1.7727,-1.7727,-1.7755,-1.7753,-1.7758,-1.7757,-1.7758,-1.7758,-1.7752,-1.7752,-1.7751,-1.7745,-1.7745,-1.7736,-1.7711,-1.7704,-1.7728,-1.7728,-1.7727,-1.7727,-1.7727,-1.7785,-1.7777,-1.7785,-1.7786,-1.7784,-1.7787,-1.7779,-1.778,-1.7779,-1.7781,-1.7772,-1.7754,-1.775,-1.7747,-1.7741,-1.7774,-1.7774,-1.7774,-1.7774,-1.7804,-1.7801,-1.7807,-1.7809,-1.7809,-1.7802,-1.781,-1.7806,-1.7799,-1.7798,-1.7793,-1.7785,-1.7783,-1.7779,-1.7776,-1.7771,-1.781,-1.781,-1.781,-1.7822,-1.7819,-1.7828,-1.7822,-1.7819,-1.7818,-1.7825,-1.7827,-1.7818,-1.7811,-1.7797,-1.7796,-1.7783,-1.7779,-1.7771,-1.7766,-1.7756,0,0]}]]